Waukegan, IL

9:59 AM CDT on May 27, 2017 (GMT -0500)
Waukegan Regional

Weather History for KUGN - May, 2013

Change the Weather History Date:

Thursday, May 2, 2013

  Actual Average Record
Temperature  
Mean Temperature 46 °F -  
Max Temperature 52 °F 62 °F 81 °F (2001)
Min Temperature 40 °F 42 °F 28 °F (2004)
Degree Days  
Heating Degree Days 19 13  
Month to date heating degree days 19 27  
Since 1 July heating degree days 6319 6469  
Cooling Degree Days 0 0  
Month to date cooling degree days 0 0  
Year to date cooling degree days 8 4  
Moisture  
Dew Point 39 °F    
Average Humidity 76    
Maximum Humidity 89    
Minimum Humidity 63    
Precipitation  
Precipitation 0.01 in 0.13 in 0.45 in (2008)
Month to date precipitation 0.01 0.26  
Year to date precipitation 11.13 9.11  
Sea Level Pressure  
Sea Level Pressure 30.20 in    
Wind  
Wind Speed 12 mph (North)    
Max Wind Speed 23 mph    
Max Gust Speed 32 mph    
Visibility 10 miles    
Events Rain    
T = Trace of Precipitation, MM = Missing Value Source: NWS Daily Summary

Daily Weather History Graph

Daily Weather History Graph

Search for Another Location

Airport or City:

Trip Planner

Search our weather history database for the weather conditions in past years. The results will help you decide how hot, cold, wet, or windy it might be!

Date:

Astronomy

May. 02, 2013 Rise Set
Actual Time 5:44 AM CDT 7:52 PM CDT
Civil Twilight 5:14 AM CDT 8:23 PM CDT
Nautical Twilight 4:36 AM CDT 9:01 PM CDT
Astronomical Twilight 3:54 AM CDT 9:43 PM CDT
Moon 1:40 AM CDT (5/2) 12:33 PM CDT (5/2)
Length of Visible Light 15h 09m
Length of Day
14h 07m
Waning Gibbous, 47% of the Moon is Illuminated
May 2
Waning Gibbous
May 9
New
May 17
First Quarter
May 24
Full
May 31
Last Quarter

Hourly Weather History & Observations

Time (CDT) Temp. Windchill Dew Point Humidity Pressure Visibility Wind Dir Wind Speed Gust Speed Precip Events Conditions
12:52 AM 46.9 °F - 41.0 °F 80% 30.18 in 10.0 mi North 8.1 mph - N/A   Clear
1:52 AM 45.0 °F 40.1 °F 39.0 °F 80% 30.18 in 10.0 mi North 9.2 mph - N/A   Clear
2:52 AM 44.1 °F 39.5 °F 37.9 °F 79% 30.18 in 10.0 mi North 8.1 mph 17.3 mph N/A   Mostly Cloudy
3:52 AM 43.0 °F 36.0 °F 37.0 °F 80% 30.19 in 10.0 mi North 13.8 mph 18.4 mph N/A   Overcast
4:52 AM 42.1 °F 36.6 °F 36.0 °F 79% 30.18 in 10.0 mi North 9.2 mph 16.1 mph N/A   Mostly Cloudy
5:52 AM 41.0 °F 35.2 °F 36.0 °F 82% 30.20 in 10.0 mi North 9.2 mph - N/A   Partly Cloudy
6:52 AM 42.1 °F 35.7 °F 36.0 °F 79% 30.22 in 10.0 mi North 11.5 mph 19.6 mph N/A   Clear
7:52 AM 44.1 °F 38.6 °F 37.0 °F 76% 30.23 in 10.0 mi North 10.4 mph - N/A   Clear
8:52 AM 46.0 °F 40.6 °F 37.9 °F 73% 30.24 in 10.0 mi NNE 11.5 mph 21.9 mph N/A   Partly Cloudy
9:52 AM 48.9 °F - 39.0 °F 69% 30.22 in 10.0 mi North 11.5 mph 18.4 mph N/A   Mostly Cloudy
10:52 AM 48.9 °F - 39.0 °F 69% 30.22 in 10.0 mi NNE 15.0 mph 21.9 mph N/A   Scattered Clouds
11:52 AM 51.1 °F - 39.9 °F 66% 30.22 in 10.0 mi North 11.5 mph 17.3 mph N/A   Scattered Clouds
12:52 PM 51.1 °F - 41.0 °F 68% 30.23 in 10.0 mi North 11.5 mph 18.4 mph N/A   Scattered Clouds
1:52 PM 50.0 °F - 41.0 °F 71% 30.21 in 10.0 mi NNE 16.1 mph 23.0 mph N/A   Scattered Clouds
2:52 PM 45.0 °F 37.9 °F 39.0 °F 80% 30.20 in 10.0 mi NNE 16.1 mph 24.2 mph 0.00 in   Overcast
3:52 PM 45.0 °F 38.5 °F 39.9 °F 82% 30.19 in 8.0 mi North 13.8 mph 21.9 mph 0.01 in Rain Light Rain
4:52 PM 46.9 °F - 39.9 °F 77% 30.16 in 10.0 mi North 12.7 mph 26.5 mph 0.00 in   Overcast
5:52 PM 46.9 °F - 39.0 °F 74% 30.19 in 10.0 mi North 15.0 mph 24.2 mph N/A   Mostly Cloudy
6:52 PM 48.0 °F - 39.9 °F 74% 30.20 in 10.0 mi North 6.9 mph - N/A   Overcast
7:52 PM 46.0 °F 39.9 °F 37.9 °F 73% 30.20 in 10.0 mi North 13.8 mph 21.9 mph N/A   Overcast
8:52 PM 45.0 °F 38.5 °F 37.9 °F 76% 30.19 in 10.0 mi NNE 13.8 mph 21.9 mph N/A   Overcast
9:41 PM 42.8 °F 38.0 °F 39.2 °F 87% 30.22 in 10.0 mi North 8.1 mph - 0.00 in   Overcast
9:52 PM 43.0 °F 36.4 °F 39.9 °F 89% 30.22 in 10.0 mi North 12.7 mph 18.4 mph 0.00 in   Overcast
10:17 PM 42.8 °F 35.1 °F 39.2 °F 87% 30.17 in 10.0 mi NNE 16.1 mph 21.9 mph N/A   Overcast
10:47 PM 42.8 °F 35.1 °F 37.4 °F 81% 30.15 in 10.0 mi NNE 16.1 mph 27.6 mph N/A   Overcast
10:52 PM 42.1 °F 33.9 °F 37.9 °F 85% 30.17 in 10.0 mi NNE 17.3 mph 28.8 mph N/A   Overcast
11:10 PM 41.0 °F 33.5 °F 37.4 °F 87% 30.17 in 10.0 mi North 13.8 mph 27.6 mph N/A   Overcast
11:52 PM 39.9 °F 32.5 °F 36.0 °F 86% 30.18 in 10.0 mi North 12.7 mph 27.6 mph N/A   Overcast